LiveATC.Net - Listen to live air traffic control over the Internet!


ICAO: EPRZ  IATA: RZE   Airport: Rzeszow-Jasionka Airport
City: Jasionka
Country: Poland   Continent: Europe
EPRZ METAR Weather: EPRZ 261230Z 12005KT 5000 -RA BR BKN003 OVC011 12/11 Q1006
EPRZ ADS-B Flight Tracking (ADSBExchange)
EPRZ Flight Activity (FlightAware)
EPRZ Webcam:  (Airport Webcams) 

EPRZ Del/Twr/EPWW Radar
Feed Status: DOWN
Last heard on: 2022-02-26 08:35:38 (212 days 4 hours 48 minutes ago)
Archive Access: EPRZ Del/Twr/EPWW Radar
FacilityFrequency
EPWW Radar120.950
EPWW Radar134.175
Rzeszow Delivery121.800
Rzeszow Tower126.800

NOTICE

Unauthorized use prohibited. See LiveATC.net Terms of Service


Airport/ARTCC Code
Frequency Search
(e.g., 124.400, 128.75)
Site-wide search
 


Browse Feeds
Top 50 Feeds
HF Oceanic Feeds
Coverage Map
Bad Weather Areas

LiveATC FAQ
Offer LiveATC feed
Contact LiveATC.net
Press Inquiries

LiveATC on iPhone
LiveATC on Android

LiveATC Mobile
(Mobile browser)

ATC Audio Archives
Interesting Recordings

LiveATC Forums


Home Page
About LiveATC.net


Terms of Use
Privacy Policy

AIRMETs/SIGMETs

FAA Airport Status
NAS Status
Arrival Demand


Server Software By:
Icecast.org
Liquidsoap